International Virtual Aviation Organisation

Russian Federation and Kazakhstan MCD

 

Карточка аэропорта UEEE

Внимание!
Информация на этой странице в стадии наполнения.
Если вы не увидели какой-то информации, или заметили неточность - пожалуйста сообщите нам!
Спасибо!
Команда RU-STAFF
Название аэропортаЯкутск
Название аэропорта (англ.)Yakutsk
Превышение325 ft. (99.1 m.)
Координаты62°5.5920000000002', 129°46.259999999999'
Высота перехода1000m
Эшелон переходаFL050
Коды ответчика3220-3237
Зона ОрВДЯкутск РПИ (UEEE)
Данные METARUEEE 302100Z 29003MPS CAVOK M30/M33 Q1025 R23L/420153 NOSIG RMK QFE760
Проноз погоды (TAF)UEEE 302105Z 3021/0103 31003MPS 3200 BR SCT011 SCT030 TEMPO 3021/3103 0300 FZFG VV003 BECMG 3103/3105 9999 NSW SCT025
NOTAMshow/hide NOTAM
AWOS   TABLE

Информация о ВПП

ВПП Длина ВПП (м.) Покрытие Курс ВПП Частота ILS
05R3400Асфальтобетон52 
23L3400Асфальтобетон232111.7

Диспетчерские позиции

Позывной Наименование органа УВД Частота
UEEE_APPЯкутск-Подход129.3
UEEE_R_APPЯкутск-Круг120.3
UEEE_TWRЯкутск-Старт120.0
UEEE_GNDЯкутск-Руление121.7



Спутниковое изображение